Weather History for Fort Morgan, CO

Change the Weather History Date:

Monday, October 15, 2012

  Actual Average (KAKO) Record (KAKO)
Temperature  
Mean Temperature 56 °F 50 °F  
Max Temperature 78 °F 64 °F 87 °F (1938)
Min Temperature 34 °F 37 °F 13 °F (1966)
Degree Days  
Heating Degree Days 9    
Month to date heating degree days  
Cooling Degree Days 0    
Month to date cooling degree days  
Growing Degree Days 6 (Base 50)    
Moisture  
Dew Point 30 °F    
Average Humidity 46    
Maximum Humidity 94    
Minimum Humidity 14    
Precipitation  
Precipitation 0.00 in 0.04 in 0.97 in (1942)
Month to date precipitation 0.63  
Year to date precipitation 15.28  
Sea Level Pressure  
Sea Level Pressure 29.99 in    
Wind  
Wind Speed 6 mph ()    
Max Wind Speed 17 mph    
Max Gust Speed -    
Visibility 10.0 miles    
Events      
T = Trace of Precipitation, MM = Missing Value Source: Averaged Metar Reports

Daily Weather History Graph

Daily Weather History Graph

Search for Another Location

Airport:

Trip Planner

Search our weather history database for the weather conditions in past years. The results will help you decide how hot, cold, wet, or windy it might be!

Date:

Astronomy

Oct. 15, 2012 Rise Set
Actual Time 7:06 AM MDT 6:14 PM MDT
Civil Twilight 6:39 AM MDT 6:41 PM MDT
Nautical Twilight 6:07 AM MDT 7:13 PM MDT
Astronomical Twilight 5:36 AM MDT 7:44 PM MDT
Moon 7:19 AM MDT (10/15) 6:15 PM MDT (10/15)
Length of Visible Light 12h 02m
Length of Day
11h 07m
New Moon, 0% of the Moon is Illuminated
Oct 15
New Moon
Oct 21
First Quarter
Oct 29
Full
Nov 6
Last Quarter
Nov 13
New

Hourly Weather History & Observations

Time (MDT) Temp. Windchill Dew Point Humidity Pressure Visibility Wind Dir Wind Speed Gust Speed Precip Events Conditions
12:15 AM 42.1 °F 37.1 °F 34.7 °F 75% 30.15 in 10.0 mi WSW 8.1 mph - N/A   Clear
12:35 AM 42.3 °F 36.8 °F 34.9 °F 75% 30.15 in 10.0 mi West 9.2 mph - N/A   Clear
12:55 AM 42.3 °F 37.9 °F 34.7 °F 75% 30.14 in 10.0 mi West 6.9 mph - N/A   Clear
1:15 AM 42.3 °F 37.9 °F 34.7 °F 75% 30.14 in 10.0 mi West 6.9 mph - N/A   Clear
1:35 AM 40.6 °F 36.0 °F 33.8 °F 77% 30.14 in 10.0 mi West 6.9 mph - N/A   Clear
1:55 AM 42.1 °F 37.7 °F 34.2 °F 74% 30.14 in 10.0 mi West 6.9 mph - N/A   Clear
2:15 AM 42.4 °F 38.8 °F 34.2 °F 72% 30.13 in 10.0 mi West 5.8 mph - N/A   Clear
2:35 AM 40.1 °F 35.3 °F 33.4 °F 77% 30.12 in 10.0 mi WSW 6.9 mph - N/A   Clear
2:55 AM 39.0 °F 34.8 °F 33.8 °F 82% 30.11 in 10.0 mi WSW 5.8 mph - N/A   Clear
3:15 AM 37.9 °F 32.1 °F 33.6 °F 84% 30.10 in 10.0 mi WSW 8.1 mph - N/A   Clear
3:35 AM 37.0 °F 30.4 °F 33.6 °F 87% 30.10 in 10.0 mi WSW 9.2 mph - N/A   Clear
3:55 AM 37.0 °F 31.0 °F 34.0 °F 89% 30.09 in 10.0 mi WSW 8.1 mph - N/A   Clear
4:15 AM 36.1 °F 29.9 °F 33.3 °F 89% 30.09 in 10.0 mi WSW 8.1 mph - N/A   Clear
4:35 AM 35.6 °F 28.6 °F 33.1 °F 91% 30.09 in 10.0 mi West 9.2 mph - N/A   Clear
4:55 AM 36.9 °F 30.7 °F 34.7 °F 92% 30.09 in 10.0 mi West 8.1 mph - N/A   Clear
5:15 AM 37.9 °F 32.1 °F 35.1 °F 89% 30.08 in 10.0 mi West 8.1 mph - N/A   Clear
5:35 AM 38.8 °F 34.6 °F 35.1 °F 86% 30.08 in 10.0 mi West 5.8 mph - N/A   Clear
6:35 AM 34.9 °F 27.7 °F 33.1 °F 93% 30.06 in 10.0 mi WSW 9.2 mph - N/A   Clear
6:55 AM 34.2 °F 25.7 °F 32.7 °F 94% 30.06 in 10.0 mi West 11.5 mph - N/A   Clear
7:35 AM 36.1 °F 29.9 °F 34.5 °F 94% 30.06 in 10.0 mi WSW 8.1 mph - N/A   Clear
7:55 AM 38.5 °F 35.0 °F 36.0 °F 91% 30.06 in 10.0 mi WSW 4.6 mph - N/A   Clear
8:15 AM 41.0 °F 39.0 °F 37.4 °F 87% 30.06 in 10.0 mi WSW 3.5 mph - N/A   Clear
8:55 AM 43.7 °F 38.6 °F 38.3 °F 81% 30.07 in 10.0 mi WSW 9.2 mph - N/A   Clear
9:15 AM 48.6 °F - 38.8 °F 69% 30.07 in 10.0 mi WSW 8.1 mph - N/A   Clear
9:35 AM 51.6 °F - 37.6 °F 59% 30.06 in 10.0 mi WSW 8.1 mph - N/A   Clear
9:55 AM 54.3 °F - 36.7 °F 51% 30.06 in 10.0 mi West 5.8 mph - N/A   Clear
10:35 AM 59.0 °F - 36.1 °F 42% 30.04 in 10.0 mi WSW 8.1 mph - N/A   Clear
10:55 AM 61.0 °F - 35.8 °F 39% 30.04 in 10.0 mi WSW 8.1 mph - N/A   Clear
11:15 AM 63.5 °F - 34.2 °F 33% 30.03 in 10.0 mi SW 6.9 mph - N/A   Clear
11:35 AM 65.8 °F - 33.3 °F 30% 30.02 in 10.0 mi WSW 4.6 mph - N/A   Clear
12:15 PM 70.2 °F - 32.5 °F 25% 30.00 in 10.0 mi SSW 4.6 mph - N/A   Clear
12:35 PM 72.5 °F - 32.0 °F 23% 29.99 in 10.0 mi SSW 6.9 mph - N/A   Clear
12:55 PM 73.0 °F - 32.0 °F 22% 29.98 in 10.0 mi SSW 6.9 mph - N/A   Clear
1:15 PM 73.9 °F - 31.1 °F 21% 29.97 in 10.0 mi South 4.6 mph - N/A   Clear
1:35 PM 75.2 °F - 30.7 °F 20% 29.96 in 10.0 mi WSW 4.6 mph - N/A   Clear
1:55 PM 76.1 °F - 29.1 °F 18% 29.94 in 10.0 mi SSW 4.6 mph - N/A   Clear
2:15 PM 76.3 °F - 28.2 °F 17% 29.93 in 10.0 mi Calm Calm - N/A   Clear
2:35 PM 77.5 °F - 26.1 °F 15% 29.93 in 10.0 mi West 3.5 mph - N/A   Clear
2:55 PM 77.5 °F - 25.0 °F 14% 29.91 in 10.0 mi Calm Calm - N/A   Clear
3:15 PM 77.9 °F - 24.3 °F 14% 29.91 in 10.0 mi SW 4.6 mph - N/A   Clear
3:35 PM 78.3 °F - 25.0 °F 14% 29.91 in 10.0 mi SSW 4.6 mph - N/A   Clear
3:55 PM 78.4 °F - 26.6 °F 15% 29.91 in 10.0 mi SSW 4.6 mph - N/A   Clear
4:15 PM 78.3 °F - 24.8 °F 14% 29.90 in 10.0 mi SW 8.1 mph - N/A   Clear
4:35 PM 78.3 °F - 24.8 °F 14% 29.89 in 10.0 mi SSW 5.8 mph - N/A   Clear
5:15 PM 75.9 °F - 23.2 °F 14% 29.89 in 10.0 mi SW 5.8 mph - N/A   Clear
5:35 PM 73.9 °F - 24.3 °F 16% 29.88 in 10.0 mi SW 4.6 mph - N/A   Clear
5:55 PM 70.0 °F - 24.8 °F 18% 29.87 in 10.0 mi WSW 4.6 mph - N/A   Clear
6:15 PM 67.5 °F - 24.6 °F 20% 29.87 in 10.0 mi WSW 3.5 mph - N/A   Clear
6:35 PM 66.4 °F - 24.3 °F 20% 29.87 in 10.0 mi Calm Calm - N/A   Clear
6:55 PM 66.2 °F - 24.1 °F 20% 29.87 in 10.0 mi Calm Calm - N/A   Clear
7:15 PM 66.4 °F - 24.6 °F 21% 29.88 in 10.0 mi Calm Calm - N/A   Clear
7:35 PM 67.1 °F - 23.9 °F 20% 29.88 in 10.0 mi Calm Calm - N/A   Clear
7:55 PM 66.2 °F - 24.6 °F 21% 29.88 in 10.0 mi Calm Calm - N/A   Clear
8:15 PM 64.6 °F - 25.3 °F 23% 29.89 in 10.0 mi Calm Calm - N/A   Clear
8:35 PM 65.1 °F - 25.0 °F 22% 29.89 in 10.0 mi West 3.5 mph - N/A   Clear
8:55 PM 62.4 °F - 25.9 °F 25% 29.90 in 10.0 mi WNW 4.6 mph - N/A   Clear
9:15 PM 59.0 °F - 26.2 °F 29% 29.89 in 10.0 mi West 6.9 mph - N/A   Clear
9:35 PM 57.7 °F - 27.1 °F 31% 29.90 in 10.0 mi West 6.9 mph - N/A   Clear
9:55 PM 57.9 °F - 28.2 °F 32% 29.91 in 10.0 mi WNW 9.2 mph - N/A   Clear
10:15 PM 60.4 °F - 28.2 °F 29% 29.91 in 10.0 mi NW 11.5 mph - N/A   Clear
10:35 PM 63.5 °F - 27.0 °F 25% 29.90 in 10.0 mi NW 11.5 mph - N/A   Clear
10:55 PM 62.1 °F - 26.4 °F 26% 29.89 in 10.0 mi NNW 15.0 mph - N/A   Clear
11:15 PM 61.7 °F - 25.0 °F 25% 29.89 in 10.0 mi NNW 13.8 mph - N/A   Clear
11:35 PM 61.7 °F - 24.8 °F 24% 29.89 in 10.0 mi NNW 17.3 mph - N/A   Clear
11:55 PM 59.7 °F - 25.0 °F 26% 29.89 in 10.0 mi NNW 13.8 mph - N/A   Clear